Regional Weather Roundup
Issued by NWS Upton, NY

Current Version | Previous Version | Graphics & Text | Print | Product List | Glossary Off
Versions: 1 2 3 4 5 6 7 8 9 10 11 12 13 14 15 16 17 18 19 20 21 22 23 24 25 26 27 28 29 30 31 32 33 34 35 36 37 38 39 40 41 42 43 44 45 46 47 48 49 50

000
ASUS41 KOKX 031504
RWROKX

REGIONAL WEATHER ROUNDUP
NATIONAL WEATHER SERVICE NEW YORK NY
1100 AM EDT THU SEP 03 2015

NOTE: "FAIR" INDICATES FEW OR NO CLOUDS BELOW 12,000 FEET WITH NO
SIGNIFICANT WEATHER AND/OR OBSTRUCTIONS TO VISIBILITY.

NYZ071-072-176-178-NJZ106-104-031600-
NEW YORK CITY METRO AREA


CITY           SKY/WX    TMP DP  RH WIND       PRES   REMARKS
CENTRAL PARK   SUNNY     84  64  50 VRB3      29.92S
LAGUARDIA APRT MOSUNNY   84  64  50 NE8       29.88S
KENNEDY INTL   MOSUNNY   86  65  49 N7        29.89S
NEWARK/LIBERTY MOSUNNY   86  63  45 N9        29.88S
BRNX BOT. GARD   N/A     82  64  54 W5        29.91S
TETERBORO      SUNNY     84  62  47 N8        29.88S
$$

NYZ177-179-078>081-031600-
LONG ISLAND NEW YORK

CITY           SKY/WX    TMP DP  RH WIND       PRES   REMARKS
FARMINGDALE    SUNNY     85  66  53 N6        29.88S
ISLIP          MOSUNNY   86  66  51 N6        29.86F
SHIRLEY        SUNNY     86  67  52 VRB5      29.88S
WESTHAMPTON    SUNNY     80  70  71 CALM      29.89S
MONTAUK POINT    N/A     78  71  79 W5        29.89S
$$

NYZ052-065-067-031600-
HUDSON VALLEY

CITY           SKY/WX    TMP DP  RH WIND       PRES   REMARKS
WHITE PLAINS   SUNNY     84  65  52 N9        29.90R
NEWBURGH       SUNNY     81  68  65 VRB6      29.93S HAZE
MONTGOMERY     SUNNY     82  68  62 VRB3      29.92S
POUGHKEEPSIE   SUNNY     81  66  60 VRB5      29.90F
ALBANY         MOSUNNY   79  66  64 CALM      29.91F
$$

NJZ001-105-106-008-010-013-015-019>022-104-031600-
NEW JERSEY

CITY           SKY/WX    TMP DP  RH WIND       PRES   REMARKS
NEWARK/LIBERTY MOSUNNY   86  63  45 N9        29.88S
TETERBORO      SUNNY     84  62  47 N8        29.88S
CALDWELL       SUNNY     83  63  50 VRB5      29.90S
MORRISTOWN     SUNNY     84  68  58 E3        29.90S
SOMERVILLE     SUNNY     85  64  49 N7        29.89R
SUSSEX         SUNNY     81  68  64 CALM      29.92
ANDOVER          N/A     80  68  66 VRB3      29.93F
TRENTON        SUNNY     86  67  52 N12       29.89F
MILLVILLE      SUNNY     87  67  51 N3        29.90F HX  90
ATLANTIC CITY  SUNNY     88  67  49 N8        29.89F HX  91
WRIGHTSTOWN    SUNNY     85  69  58 N13       29.87S
TOMS RIVER     SUNNY     84  66  54 N8        29.89S
BELMAR         SUNNY     82  64  54 N6        29.89S
$$

PAZ047>061-062-071-031600-
EASTERN PENNSYLVANIA

CITY           SKY/WX    TMP DP  RH WIND       PRES   REMARKS
PHILADELPHIA   MOSUNNY   87  65  47 N10       29.90F
ALLENTOWN      SUNNY     87  68  52 N7        29.92F HX  90
SCRANTON       SUNNY     80  67  64 VRB3      29.96S
$$

CTZ002-004>006-009-010-012-RIZ004-006-007-MAZ004-011-015-031600-
SOUTHERN NEW ENGLAND
 IN CT

CITY           SKY/WX    TMP DP  RH WIND       PRES   REMARKS
BRADLEY INTL   MOSUNNY   81  68  64 NE6       29.88S
HARTFORD       SUNNY     82  69  64 N7        29.88S
DANBURY        SUNNY     83  65  54 NE6       29.91S
WTRBRY/OXFORD  SUNNY     81  64  57 N9        29.93S HAZE
BRIDGEPORT     SUNNY     80  68  66 S6        29.88S
MERIDEN        SUNNY     85  66  53 NE6       29.88S
NEW HAVEN      SUNNY     83  67  58 NE6       29.87F
CHESTER        NOT AVBL
GROTON         SUNNY     76  71  85 SW8       29.86F
WILLIMANTIC    SUNNY     83  68  60 CALM      29.88F

 IN RI

CITY           SKY/WX    TMP DP  RH WIND       PRES   REMARKS
PROVIDENCE     MOSUNNY   86  65  49 NE5       29.87S
BLOCK ISLAND   SUNNY     79  72  78 W8        29.88S
WESTERLY       SUNNY     81  69  67 VRB5      29.87F

 IN MA

CITY           SKY/WX    TMP DP  RH WIND       PRES   REMARKS
BOSTON         MOSUNNY   80  67  64 E6        29.87S
WORCESTER      SUNNY     81  64  56 CALM      29.92S
WESTFIELD      SUNNY     82  67  60 N5        29.89S
PROVINCETOWN     N/A     75  64  69 NW6       29.87S
NANTUCKET      NOT AVBL
$$

ANZ330-335-338-340-345-350-353-355-031600-
COASTAL MARINE OBSERVATIONS


STATION/POSITION TIME  SKY/WX   TEMP    WIND        PRES    VSBY  WAVE
                                AIR SEA DIR/SP/G                  HT/PER
                 (UTC)          (F)     (DEG/KT/KT) (MB)    (MI)  (FT/S)
NY HARB ENTRANCE 1350            77 77  360/  8/ 10 1011.3          1/12
4S FIRE IS       NOT AVBL
20S FIRE ISLAND  1350            75 75  340/  8/  8 1011.4          2/ 7
GREAT SOUTH BAY  1400            76 79  170/  2/  4   N/A
23SW MTP         1450            74 73  280/  4/  6 1011.3          1/ 7
HUDSON CANYON    NOT AVBL
KINGS POINT      1400            79 76   20/  4/  5 1011.3
EXECUTION ROCKS  1400            77     110/  4/  4   N/A
CENTRAL LI SOUND NOT AVBL
EASTERN LI SOUND 1400            72 72  220/  4/  6   N/A
ROBBINS REEF     1400            78     360/  5/  6 1011.0
$$


>>>>>>>>>>>>>>>>>>>>>>>>>>>> KEY <<<<<<<<<<<<<<<<<<<<<<<<<<<
>                                                          <
>     SKY/WX - SKY CONDITION/PRESENT WEATHER               <
>     TMP    - TEMPERATURE IN FAHRENHEIT                   <
>     DP     - DEWPOINT IN FAHRENHEIT                      <
>     RH     - RELATIVE HUMIDITY IN PERCENT                <
>     WIND   - DIRECTION AND SPEED IN MPH                  <
>     PRES   - MEAN SEA LEVEL PRESSURE IN INCHES OF HG     <
>     WCI    - WIND CHILL INDEX                            <
>     VSB    - VISIBILITY IN MILES                         <
>     HX     - HEAT INDEX                                  <
>     TC     - TEMPERATURE IN CELSIUS                      <
>     VRB    - VARIABLE WIND DIRECTION                     <
>                                                          <
>>>>>>>>>>>>>>>>>>>>>>>>>>>> KEY <<<<<<<<<<<<<<<<<<<<<<<<<<<




USA.gov is the U.S. government's official web portal to all federal, state and local government web resources and services.